Hourly Data Report for October 18, 2015

All times are specified in Local Standard Time (LST). Add 1 hour to adjust for Daylight Saving Time where and when it is observed.

RANKIN INLET A
NUNAVUT

62°48'38.000" N
92°06'53.000" W
32.30 m
2303405
71083
YRT

Download Data

Hourly Data (October 2015)
Hourly Data Report for October 18, 2015
Temp Definition
°C
Dew Point Temp Definition
°C
Rel Hum Definition
%
Wind Dir Definition
10's deg

Wind Spd Definition
km/h
Visibility Definition
km
Stn Press Definition
kPa
Hmdx Definition


Wind Chill Definition


Weather Definition


TIME
00:00 Legend Double Dagger -8.4 -9.8 90 34 4 0.8 101.04   -11 Freezing Fog
01:00 Legend Double Dagger -8.1 -9.5 90 5 7 0.6 100.94   -12 Snow Grains,Freezing Fog
02:00 Legend Double Dagger -6.7 -7.8 92 35 4 0.8 100.84   -9 Snow Grains,Freezing Fog
03:00 Legend Double Dagger -5.6 -6.6 93 36 2 3.2 100.73   -7 Snow Grains,Fog
04:00 Legend Double Dagger -4.8 -5.8 93 13 14 9.7 100.60   -10 Fog
05:00 Legend Double Dagger -4.3 -5.1 94 11 17 24.1 100.46   -10 LegendNANA
06:00 Legend Double Dagger -4.7 -5.5 94 8 18 24.1 100.31   -11 Mostly Cloudy
07:00 Legend Double Dagger -4.2 -5.0 94 8 25 24.1 100.19   -11 Snow
08:00 Legend Double Dagger -3.8 -4.6 94 8 23 24.1 100.03   -11 Snow
09:00 Legend Double Dagger -3.5 -4.2 95 8 25 24.1 99.87   -10 Snow
10:00 Legend Double Dagger -2.6 -3.3 95 8 23 4.8 99.73   -9 Snow,Fog
11:00 Legend Double Dagger -2.3 -3.1 94 8 31 3.2 99.53   -10 Snow,Fog
12:00 Legend Double Dagger -2.2 -3.2 93 8 39 3.2 99.38   -10 Snow,Fog,Blowing Snow
13:00 Legend Double Dagger -1.9 -3.0 92 7 33 1.6 99.23   -9 Snow,Fog,Blowing Snow
14:00 Legend Double Dagger -1.4 -2.8 90 6 36 1.6 99.10   -9 Snow,Fog,Blowing Snow
15:00 Legend Double Dagger -1.0 -2.3 91 6 38 1.6 98.99   -9 Snow,Fog,Blowing Snow
16:00 Legend Double Dagger -1.5 -2.5 93 5 36 0.8 98.90   -9 Snow,Blowing Snow,Freezing Fog
17:00 Legend Double Dagger -1.6 -2.6 93 4 40 0.8 98.83   -10 Snow,Blowing Snow,Freezing Fog
18:00 Legend Double Dagger -2.0 -3.4 90 3 40 1.6 98.80   -10 Snow,Fog,Blowing Snow
19:00 Legend Double Dagger -2.3 -3.6 91 2 41 2.4 98.76   -11 Snow,Fog,Blowing Snow
20:00 Legend Double Dagger -2.4 -3.5 92 1 42 2.4 98.74   -11 Snow,Blowing Snow
21:00 Legend Double Dagger -2.8 -4.1 91 36 49 3.2 98.63   -12 Snow,Blowing Snow
22:00 Legend Double Dagger -3.2 -4.3 92 36 49 2.4 98.69   -12 Snow,Blowing Snow
23:00 Legend Double Dagger -3.8 -4.9 92 35 52 2.4 98.71   -13 Snow,Blowing Snow

Notes on Data Quality.

Legend

  • E = Estimated
  • M = Missing
  • NA = Not Available
  • ‡ = Partner data that is not subject to review by the National Climate Archives
Date modified: